RYR9GA EGSS-EPKK

Flight info

Callsign RYR9GA
Flight time N/A
Altitude 35000
Route CLN P44 RATLO M197 REDFA DCT TACHA DCT OTMEC DCT ZUCKA DCT DESAR DCT LASIS T714 MOFKE
Aircraft B738/M-SDE2E3FGHIRWXY/LB1

Departure

Time 2026-05-04 13:28
Airport London Stansted Airport (EGSS)

Arrival

Time N/A
Airport Kraków John Paul II International Airport (EPKK)
Time Latitude Longitude Altitude Speed Heading
2026-05-04 12:57 51.89263 0.25910 357 ft 0 kts 43°
2026-05-04 13:16 51.89254 0.25896 357 ft 2 kts 43°
2026-05-04 13:16 51.89243 0.25880 357 ft 2 kts 43°
2026-05-04 13:16 51.89232 0.25866 357 ft 2 kts
2026-05-04 13:16 51.89218 0.25872 357 ft 2 kts 311°
2026-05-04 13:17 51.89209 0.25892 357 ft 2 kts 313°
2026-05-04 13:17 51.89204 0.25900 357 ft 0 kts 315°
2026-05-04 13:20 51.89206 0.25896 357 ft 2 kts 315°
2026-05-04 13:21 51.89235 0.25846 357 ft 9 kts 311°
2026-05-04 13:21 51.89292 0.25743 357 ft 14 kts 312°
2026-05-04 13:21 51.89363 0.25606 357 ft 16 kts 286°
2026-05-04 13:21 51.89303 0.25456 357 ft 17 kts 223°
2026-05-04 13:22 51.89240 0.25363 357 ft 19 kts 222°
2026-05-04 13:22 51.89163 0.25256 357 ft 21 kts 220°
2026-05-04 13:22 51.89042 0.25078 357 ft 23 kts 224°
2026-05-04 13:22 51.88942 0.24927 357 ft 23 kts 223°
2026-05-04 13:23 51.88782 0.24684 357 ft 22 kts 224°
2026-05-04 13:23 51.88677 0.24522 357 ft 15 kts 223°
2026-05-04 13:23 51.88601 0.24411 357 ft 15 kts 222°
2026-05-04 13:23 51.88504 0.24263 357 ft 25 kts 223°
2026-05-04 13:24 51.88350 0.24032 357 ft 29 kts 224°
2026-05-04 13:24 51.88228 0.23833 357 ft 20 kts 220°
2026-05-04 13:24 51.88126 0.23691 357 ft 18 kts 220°
2026-05-04 13:25 51.87901 0.23359 357 ft 26 kts 224°
2026-05-04 13:25 51.87775 0.23162 357 ft 21 kts 227°
2026-05-04 13:25 51.87761 0.22987 357 ft 14 kts 307°
2026-05-04 13:25 51.87831 0.22863 357 ft 15 kts 312°
2026-05-04 13:26 51.87909 0.22726 357 ft 17 kts 313°
2026-05-04 13:26 51.87992 0.22719 357 ft 14 kts 39°
2026-05-04 13:26 51.88001 0.22734 357 ft 0 kts 45°
2026-05-04 13:26 51.88001 0.22735 357 ft 0 kts 44°
2026-05-04 13:27 51.88084 0.22858 357 ft 46 kts 41°
2026-05-04 13:27 51.88492 0.23467 357 ft 110 kts 42°
2026-05-04 13:27 51.89198 0.24525 359 ft 162 kts 41°
2026-05-04 13:27 51.90078 0.25813 663 ft 180 kts 41°
2026-05-04 13:28 51.91044 0.27228 1088 ft 194 kts 44°
2026-05-04 13:28 51.91685 0.28995 1859 ft 182 kts 82°
2026-05-04 13:28 51.91633 0.30990 2382 ft 182 kts 109°
2026-05-04 13:28 51.91138 0.32945 2576 ft 202 kts 118°
2026-05-04 13:29 51.90502 0.35152 2770 ft 229 kts 117°
2026-05-04 13:29 51.89826 0.37590 3154 ft 246 kts 116°
2026-05-04 13:29 51.89117 0.40168 3738 ft 257 kts 117°
2026-05-04 13:29 51.88338 0.42871 4032 ft 274 kts 117°
2026-05-04 13:30 51.87544 0.45579 4009 ft 277 kts 117°
2026-05-04 13:30 51.86757 0.48266 4324 ft 270 kts 117°
2026-05-04 13:30 51.85935 0.51069 4754 ft 278 kts 117°
2026-05-04 13:30 51.85113 0.53829 5191 ft 283 kts 117°
2026-05-04 13:31 51.84296 0.56612 5749 ft 285 kts 117°
2026-05-04 13:31 51.83518 0.59294 6278 ft 289 kts 115°
2026-05-04 13:31 51.83001 0.62523 6851 ft 295 kts 96°
2026-05-04 13:31 51.82953 0.65682 7113 ft 311 kts 88°
2026-05-04 13:32 51.83162 0.69163 8008 ft 308 kts 79°
2026-05-04 13:32 51.83685 0.72498 8838 ft 309 kts 73°
2026-05-04 13:32 51.84292 0.75874 9567 ft 313 kts 73°
2026-05-04 13:32 51.84887 0.79297 10240 ft 320 kts 74°
2026-05-04 13:33 51.85506 0.82954 10393 ft 346 kts 75°
2026-05-04 13:33 51.86138 0.86757 10934 ft 355 kts 75°
2026-05-04 13:33 51.86793 0.90734 11583 ft 363 kts 75°
2026-05-04 13:33 51.87444 0.94712 12292 ft 367 kts 75°
2026-05-04 13:34 51.88098 0.98716 12933 ft 374 kts 75°
2026-05-04 13:34 51.88772 1.02835 13604 ft 380 kts 75°
2026-05-04 13:34 51.89452 1.07007 14264 ft 386 kts 75°
2026-05-04 13:34 51.90140 1.11272 14923 ft 392 kts 75°
2026-05-04 13:35 51.90833 1.15573 15575 ft 398 kts 75°
2026-05-04 13:35 51.92258 1.24446 16837 ft 410 kts 75°
2026-05-04 13:35 51.92993 1.29041 17457 ft 416 kts 75°
2026-05-04 13:36 51.93722 1.33612 18049 ft 422 kts 75°
2026-05-04 13:36 51.94468 1.38303 18640 ft 428 kts 75°
2026-05-04 13:36 51.95214 1.43002 19208 ft 434 kts 75°
2026-05-04 13:36 51.95960 1.47721 19762 ft 439 kts 75°
2026-05-04 13:37 51.96727 1.52585 20315 ft 445 kts 75°
2026-05-04 13:37 51.97499 1.57503 20851 ft 450 kts 75°
2026-05-04 13:37 51.98272 1.62430 21374 ft 455 kts 75°
2026-05-04 13:37 51.99056 1.67444 21882 ft 460 kts 76°
2026-05-04 13:38 51.99839 1.72436 22361 ft 465 kts 76°
2026-05-04 13:38 52.00641 1.77567 22841 ft 470 kts 76°
2026-05-04 13:38 52.01450 1.82766 23307 ft 475 kts 76°
2026-05-04 13:38 52.02270 1.88060 23772 ft 480 kts 76°
2026-05-04 13:39 52.03082 1.93326 24214 ft 485 kts 76°
2026-05-04 13:39 52.03911 1.98724 24659 ft 489 kts 76°
2026-05-04 13:39 52.04738 2.04129 25086 ft 494 kts 76°
2026-05-04 13:39 52.05572 2.09601 25511 ft 498 kts 76°
2026-05-04 13:40 52.06407 2.15102 25920 ft 503 kts 76°
2026-05-04 13:40 52.07254 2.20704 26330 ft 507 kts 76°
2026-05-04 13:40 52.08102 2.26330 26726 ft 511 kts 76°
2026-05-04 13:40 52.08953 2.32003 27118 ft 516 kts 76°
2026-05-04 13:41 52.09812 2.37743 27500 ft 520 kts 76°
2026-05-04 13:41 52.10669 2.43498 27873 ft 524 kts 76°
2026-05-04 13:41 52.11529 2.49270 28228 ft 528 kts 75°
2026-05-04 13:42 52.13672 2.60900 28940 ft 535 kts 71°
2026-05-04 13:42 52.14794 2.66668 29270 ft 539 kts 72°
2026-05-04 13:42 52.15940 2.72576 29590 ft 543 kts 72°
2026-05-04 13:42 52.17079 2.78500 29900 ft 546 kts 72°
2026-05-04 13:43 52.18214 2.84457 30211 ft 549 kts 72°
2026-05-04 13:43 52.19364 2.90535 30514 ft 553 kts 72°
2026-05-04 13:43 52.20496 2.96559 30813 ft 556 kts 72°
2026-05-04 13:43 52.21632 3.02635 31104 ft 560 kts 72°
2026-05-04 13:44 52.22768 3.08738 31393 ft 563 kts 72°
2026-05-04 13:44 52.23833 3.15008 31669 ft 566 kts 77°
2026-05-04 13:44 52.24618 3.21345 31981 ft 568 kts 82°
2026-05-04 13:44 52.25028 3.27824 32310 ft 567 kts 92°
2026-05-04 13:45 52.24881 3.34235 32685 ft 563 kts 99°
2026-05-04 13:45 52.24501 3.40594 33047 ft 563 kts 100°
2026-05-04 13:45 52.24112 3.46986 33394 ft 564 kts 100°
2026-05-04 13:45 52.23716 3.53434 33752 ft 565 kts 101°
2026-05-04 13:46 52.23315 3.59849 34106 ft 565 kts 101°
2026-05-04 13:46 52.22910 3.66193 34510 ft 564 kts 102°
2026-05-04 13:46 52.22511 3.72429 34864 ft 563 kts 102°
2026-05-04 13:46 52.22098 3.78824 34920 ft 565 kts 102°
2026-05-04 13:47 52.21267 3.91433 34912 ft 559 kts 102°
2026-05-04 13:47 52.20417 4.03957 34912 ft 558 kts 102°
2026-05-04 13:48 52.19554 4.16404 34912 ft 560 kts 102°
2026-05-04 13:48 52.18686 4.28737 34912 ft 560 kts 102°
2026-05-04 13:49 52.17785 4.41328 34912 ft 560 kts 102°
2026-05-04 13:49 52.16868 4.53940 34912 ft 560 kts 102°
2026-05-04 13:50 52.15940 4.66517 34911 ft 560 kts 103°
2026-05-04 13:50 52.15038 4.78796 34912 ft 559 kts 103°
2026-05-04 13:51 52.14088 4.91447 34912 ft 559 kts 103°
2026-05-04 13:51 52.13122 5.04035 34912 ft 560 kts 103°
2026-05-04 13:52 52.11643 5.22926 34912 ft 560 kts 103°
2026-05-04 13:53 52.10648 5.35396 34912 ft 560 kts 103°
2026-05-04 13:53 52.09638 5.47881 34912 ft 560 kts 103°
2026-05-04 13:54 52.08117 5.66374 34912 ft 559 kts 103°
2026-05-04 13:55 52.06587 5.85071 34911 ft 559 kts 102°
2026-05-04 13:55 52.05517 6.04040 34912 ft 562 kts 100°
2026-05-04 13:56 52.04804 6.16683 34912 ft 562 kts 100°
2026-05-04 13:57 52.03687 6.35614 34912 ft 562 kts 100°
2026-05-04 13:58 52.02140 6.60774 34912 ft 562 kts 100°
2026-05-04 13:58 52.00977 6.79378 34912 ft 560 kts 101°
2026-05-04 13:59 52.00171 6.91956 34912 ft 561 kts 101°
2026-05-04 14:00 51.98928 7.10800 34912 ft 561 kts 101°
2026-05-04 14:00 51.97650 7.29647 34912 ft 561 kts 101°
2026-05-04 14:01 51.96775 7.42274 34912 ft 561 kts 101°
2026-05-04 14:02 51.95443 7.61136 34912 ft 561 kts 101°
2026-05-04 14:02 51.94637 7.72452 34911 ft 560 kts 102°